Regional Weather Roundup
Issued by NWS Sioux Falls, SD

Home | Current Version | Previous Version | Graphics & Text | Print | Product List | Glossary Off
Versions: 1 2 3 4 5 6 7 8 9 10 11 12 13 14 15 16 17 18 19 20 21 22 23 24 25 26 27 28 29 30 31 32 33 34 35 36 37 38 39 40 41 42 43 44 45 46 47 48 49 50

000
ASUS43 KFSD 220002
RWRFSD

WEATHER ROUNDUP FOR SE SOUTH DAKOTA/SW MINNESOTA/NW IOWA
NATIONAL WEATHER SERVICE SIOUX FALLS SD
700 PM CDT FRI JUL 21 2017

NOTE: "FAIR" INDICATES FEW OR NO CLOUDS BELOW 12,000 FEET WITH NO
SIGNIFICANT WEATHER AND OR OBSTRUCTIONS TO VISIBILITY.


SDZ038>040-050-052>070-220100-
SOUTHEAST SOUTH DAKOTA

CITY           SKY/WX    TMP DP  RH WIND       PRES   REMARKS
BROOKINGS      MOSUNNY   83  72  69 S10       29.80F
CHAMBERLAIN    SUNNY     96  72  45 SE6       29.74F HX 104
6HR MIN TEMP:  90; 6HR MAX TEMP:  99;

HURON          MOSUNNY   87  72  60 S13       29.74F
6HR MIN TEMP:  86; 6HR MAX TEMP:  90;

MADISON        FAIR      81  77  89 SE10      29.81S
MITCHELL       SUNNY     87  73  62 SE12      29.76F
6HR MIN TEMP:  86; 6HR MAX TEMP:  90;

SIOUX FALLS    MOSUNNY   83  75  77 E10       29.78F
6HR MIN TEMP:  81; 6HR MAX TEMP:  86;

WINNER         FAIR      99  62  29 W6        29.76F HX 100
YANKTON        SUNNY     86  76  71 NE14      29.75F HX  96
$$

MNZ071-072-080-081-089-090-097-098-220100-
SOUTHWEST MINNESOTA

CITY           SKY/WX    TMP DP  RH WIND       PRES   REMARKS
FAIRMONT       PTSUNNY   77  71  82 SE7       29.80F
JACKSON        SUNNY     79  70  73 CALM      29.82F
MARSHALL       MOSUNNY   83  73  72 S13       29.78F
6HR MIN TEMP:  82; 6HR MAX TEMP:  86;

MONTEVIDEO     SUNNY     84  73  70 SW10      29.77F
PIPESTONE      MOSUNNY   82  73  74 S7        29.81F
REDWOOD FALLS  SUNNY     81  69  67 S10       29.79F
WINDOM         SUNNY     79  70  73 SE7       29.81F
WORTHINGTON    SUNNY     79  72  79 SE8       29.81F
$$

IAZ001>003-012>014-020>022-031-032-NEZ013-014-SDZ071-220100-
NORTHWEST IOWA

CITY           SKY/WX    TMP DP  RH WIND       PRES   REMARKS
CHEROKEE       MOSUNNY   82  76  83 E8        29.77F
DENISON        CLOUDY    91  79  66 S7        29.75F HX 107
ESTHERVILLE    MOSUNNY   77  73  87 S9        29.80F
ORANGE CITY    SUNNY     84  77  79 E5        29.78F
SHELDON        SUNNY     82  75  78 SE8       29.77F
SIOUX CITY     SUNNY     91  80  70 E8        29.72F HX 109
6HR MIN TEMP:  82; 6HR MAX TEMP:  91;

SPENCER        MOSUNNY   81  73  76 E8        29.79F
6HR MIN TEMP:  75; 6HR MAX TEMP:  82; 6HR PCP:  0.01;

STORM LAKE     CLOUDY    77  75  94 E12       29.79F
$$

ABBREVIATIONS USED IN REMARKS
   TC - TEMPERATURE IN CELSIUS
  WCI - WIND CHILL INDEX
   HX - HEAT INDEX
  VSB - VISIBILITY




USA.gov is the U.S. government's official web portal to all federal, state and local government web resources and services.